Wind_Speed
39 38 37 37 37 35 34 33 31 30 31 34 34 33 34 34 34 34 35 36 35 35 35 34 34 34 33 33 33 33 32 31 32 31 30 29 29 30 31 30 29 28
44 42 42 41 39 36 35 35 34 33 33 35 35 35 36 37 37 38 39 40 39 38 37 36 36 36 35 35 35 34 34 33 33 33 33 32 30 30 31 32 32 30
50 49 47 45 42 37 35 35 35 36 36 37 37 39 40 40 40 41 42 42 42 41 40 39 39 39 39 38 38 38 38 37 37 36 35 35 34 32 31 34 35 35
52 52 51 49 45 39 36 35 35 36 38 40 40 42 44 44 42 42 42 43 43 43 43 43 42 41 41 40 40 39 39 39 38 37 36 36 36 35 34 35 37 37
50 50 50 49 46 42 39 38 38 38 39 42 43 44 47 48 47 45 45 45 45 46 46 45 44 42 40 40 39 39 39 39 39 38 38 37 37 37 37 37 38 38
50 47 45 45 45 44 42 41 40 39 39 43 46 47 49 51 51 50 49 49 49 49 49 48 48 46 44 42 41 40 39 38 38 38 38 38 38 38 38 39 40 40
54 50 47 46 46 46 46 45 43 42 42 45 48 50 52 53 54 54 54 53 52 52 51 51 50 49 49 48 46 44 42 41 40 38 37 37 37 38 38 39 41 43
59 56 53 50 50 50 51 51 49 48 48 48 50 52 54 54 55 56 56 55 54 54 53 53 52 51 51 50 50 50 49 47 45 43 41 39 37 37 37 39 41 43
64 61 57 55 54 55 56 57 56 54 53 52 52 54 56 56 56 56 56 56 56 55 54 53 52 51 51 51 52 52 52 52 52 50 48 45 43 41 39 39 39 41
67 66 64 62 61 62 62 63 63 62 61 58 55 55 57 58 57 57 57 57 57 56 54 53 52 52 52 53 54 55 56 56 56 56 54 52 49 47 44 42 40 39
70 70 70 69 68 68 68 69 70 69 67 63 59 57 57 58 59 59 58 58 58 58 58 57 56 56 57 58 58 59 59 59 59 59 58 57 54 51 48 46 43 41
71 72 73 73 73 74 74 75 74 72 69 65 62 60 59 59 59 59 60 60 60 60 60 60 60 60 61 61 61 61 61 61 61 61 61 60 58 54 50 47 44 42
70 71 71 71 72 73 74 74 72 70 67 66 64 63 62 61 60 60 61 62 63 63 62 62 61 61 62 62 62 63 63 63 63 63 63 62 60 55 50 46 44 43
67 68 68 68 67 68 69 69 69 68 67 67 65 64 63 63 62 61 61 62 64 65 64 64 63 63 64 65 65 65 66 66 65 65 64 62 59 54 49 45 43 44
67 68 68 68 67 68 68 69 69 68 68 68 67 66 65 65 64 63 62 62 63 64 65 64 64 64 65 66 66 66 66 66 67 66 65 63 60 54 49 47 44 43
68 69 70 70 69 70 70 70 69 69 69 69 69 68 67 67 66 65 64 63 62 63 65 66 66 65 65 66 67 67 68 68 68 67 65 65 62 56 52 49 45 43
68 70 71 71 71 71 71 71 71 71 71 71 70 70 69 68 67 66 64 63 63 63 64 66 67 67 68 68 67 67 69 70 70 69 66 65 63 60 57 53 49 47
70 71 72 72 72 72 73 73 73 72 72 71 71 70 69 68 67 66 65 64 63 63 64 65 67 68 68 67 65 64 65 67 68 68 67 65 63 61 60 58 56 54
72 73 73 73 74 74 74 74 74 74 73 72 71 70 69 68 67 67 66 65 64 64 64 66 66 67 67 66 63 62 61 61 62 62 62 62 62 61 60 60 60 59
74 74 74 75 75 75 76 76 75 74 73 72 71 70 68 68 67 67 67 66 66 65 65 66 68 68 68 66 64 62 60 59 59 59 59 58 60 62 62 62 61 61
76 76 76 76 76 77 77 77 77 76 75 73 72 71 69 68 68 67 68 68 67 66 66 67 68 68 68 67 66 66 65 64 63 63 62 61 61 63 65 65 64 64
76 77 77 77 77 78 78 78 78 77 76 75 74 73 72 70 69 69 69 69 68 68 67 67 67 68 68 69 69 70 70 70 70 68 66 65 65 66 68 68 67 66
74 75 75 75 75 76 76 76 76 75 75 75 74 73 72 71 71 70 70 70 70 70 69 68 68 68 69 71 73 73 72 73 73 72 70 69 69 69 70 71 70 68
69 69 69 69 69 70 70 71 71 71 72 72 72 72 72 71 70 70 71 72 72 71 71 70 70 71 73 75 74 74 73 74 74 74 72 71 71 71 71 71 71 71
64 64 63 63 64 65 66 67 67 68 69 69 70 70 70 70 70 69 70 71 72 72 72 72 73 77 81 81 78 75 75 75 75 74 73 73 73 73 73 72 73 73
64 64 63 63 63 63 65 66 66 67 67 67 68 68 68 69 69 69 69 69 70 71 72 73 75 79 83 85 82 79 77 77 75 74 74 74 74 74 75 76 76 76
Wind_Direction
267 270 271 273 276 275 272 271 271 273 276 278 279 279 279 280 280 279 279 278 278 277 276 273 271 270 270 268 266 265 264 265 265 266 269 272 273 272 268 264 261 258
266 267 268 270 274 274 273 274 275 276 277 279 281 282 281 281 281 281 281 280 279 277 276 274 271 270 270 269 266 265 266 267 267 267 270 273 274 272 266 260 256 252
264 265 266 269 272 273 274 277 280 282 283 284 285 286 284 283 282 282 281 280 278 276 274 273 272 271 270 271 270 268 269 270 271 271 272 274 275 272 266 261 257 253
262 265 266 268 271 272 272 276 282 285 287 288 288 288 287 287 287 286 284 282 280 278 277 276 275 273 271 271 271 271 271 271 271 272 273 274 276 274 270 264 262 258
260 264 267 268 269 270 270 276 284 289 290 289 289 288 287 288 290 290 288 286 284 283 282 282 282 280 276 273 272 272 272 271 271 271 272 272 273 275 273 268 264 262
256 259 263 266 268 268 270 278 286 290 290 288 287 287 287 287 290 291 290 288 287 286 287 287 287 287 286 283 281 278 276 275 275 275 275 274 274 274 273 270 266 263
253 255 257 260 262 265 268 274 280 284 285 284 283 283 284 285 287 289 289 288 287 287 287 288 288 288 289 289 289 287 285 284 282 281 280 280 279 277 275 272 268 265
251 252 254 257 259 262 266 270 274 278 279 281 281 279 280 282 284 285 287 286 286 286 286 287 287 288 289 290 291 291 290 290 289 289 287 286 285 282 278 274 271 267
251 251 253 257 259 262 265 267 271 276 278 278 279 278 277 279 280 281 282 283 283 284 285 285 286 286 287 287 288 288 289 289 290 291 291 290 289 288 285 281 277 272
251 251 252 256 259 262 265 268 272 276 277 276 277 277 276 277 278 278 278 278 278 279 280 281 282 282 282 283 284 284 285 286 287 289 289 290 291 291 290 288 283 279
252 251 252 254 258 262 266 269 272 274 274 275 275 274 273 275 276 276 276 275 274 274 274 275 276 276 277 278 279 280 281 282 283 285 287 288 289 290 290 289 286 283
253 253 254 255 258 262 265 267 269 270 272 273 273 272 272 273 273 273 273 272 271 271 272 272 273 273 273 274 275 277 278 278 280 282 284 286 288 288 289 288 286 284
254 254 255 257 260 262 264 265 266 268 269 271 271 271 272 272 272 271 270 268 268 268 269 270 270 270 271 271 272 273 275 276 277 279 281 284 286 287 287 286 286 284
254 255 257 260 261 262 264 265 266 267 268 268 269 270 270 270 270 270 268 267 267 267 267 268 268 269 269 270 271 272 273 275 276 278 280 282 284 284 283 283 284 283
254 256 259 261 262 263 264 265 266 267 267 267 268 268 269 269 270 269 268 267 266 266 266 267 267 268 269 270 271 272 273 274 276 278 280 281 281 281 281 281 281 281
255 256 258 260 261 262 263 264 265 266 267 268 268 268 269 269 269 269 269 268 266 265 264 264 266 267 268 269 270 272 273 274 275 276 278 279 280 280 279 279 278 276
256 257 259 260 261 263 264 264 265 266 267 268 269 270 270 270 270 269 269 268 267 265 264 263 263 265 266 268 270 272 273 274 274 275 275 276 278 279 279 278 275 272
258 260 261 262 264 265 266 267 267 268 268 269 270 270 271 271 270 269 268 267 266 265 263 263 262 263 265 267 269 271 273 274 275 276 276 276 277 278 280 281 280 278
262 263 264 265 266 267 267 268 268 269 269 269 269 269 269 269 269 268 267 266 264 263 262 262 261 262 263 265 265 266 268 270 272 274 276 276 277 278 279 281 283 283
264 265 265 266 267 267 267 267 267 268 268 268 267 267 267 267 267 267 266 265 264 263 262 261 261 261 262 263 263 262 261 262 264 267 270 271 273 276 279 280 281 282
265 265 265 265 265 266 266 266 266 266 265 265 265 265 264 264 264 264 264 264 263 263 261 261 261 262 262 262 261 259 259 259 260 263 265 267 268 272 276 278 279 280
264 264 264 264 264 264 264 265 265 265 265 264 264 263 262 262 261 261 260 261 261 261 260 260 260 261 261 261 259 259 260 261 263 264 265 266 268 270 272 275 276 277
263 264 264 264 264 264 264 264 264 264 264 264 264 263 262 261 260 259 259 259 259 258 258 258 258 259 258 258 258 259 260 262 264 265 266 266 267 268 270 272 274 275
264 264 264 265 265 265 265 265 265 264 264 264 264 263 262 261 260 259 259 258 257 257 257 257 257 257 257 257 257 259 261 262 263 265 267 267 268 267 267 268 270 271
264 264 264 264 264 265 265 264 264 264 264 264 263 263 263 263 262 260 259 258 257 257 257 256 257 258 258 258 259 259 259 261 263 264 266 267 267 267 267 267 268 269
265 265 264 264 263 263 264 264 264 263 263 263 262 262 262 263 263 262 261 260 259 258 256 256 256 258 260 262 262 261 260 261 262 263 264 264 265 266 266 267 267 268
Height
10591 10591 10591 10592 10593 10593 10593 10594 10596 10597 10596 10597 10598 10600 10601 10601 10602 10602 10602 10601 10602 10602 10602 10602 10601 10601 10601 10601 10600 10600 10600 10600 10599 10599 10599 10599 10599 10599 10599 10599 10600 10600
10586 10586 10586 10587 10588 10589 10588 10588 10589 10591 10592 10592 10593 10595 10596 10597 10598 10598 10598 10598 10598 10598 10598 10598 10597 10597 10596 10596 10596 10596 10595 10595 10595 10595 10595 10594 10594 10594 10594 10595 10595 10596
10581 10580 10580 10582 10583 10583 10583 10582 10583 10584 10585 10587 10588 10589 10590 10592 10593 10594 10594 10594 10594 10594 10594 10593 10593 10592 10592 10591 10591 10591 10591 10591 10591 10591 10590 10590 10590 10590 10590 10590 10590 10591
10577 10576 10576 10577 10577 10578 10577 10577 10578 10578 10579 10580 10582 10583 10583 10584 10587 10588 10588 10588 10588 10588 10588 10588 10588 10587 10587 10587 10586 10586 10586 10586 10586 10586 10586 10586 10585 10585 10585 10585 10586 10586
10573 10572 10572 10571 10572 10573 10573 10573 10574 10575 10574 10574 10575 10576 10576 10576 10579 10581 10582 10582 10581 10581 10581 10581 10581 10581 10581 10581 10581 10581 10581 10580 10581 10581 10581 10581 10581 10581 10581 10581 10581 10581
10568 10568 10567 10566 10567 10568 10569 10570 10571 10571 10571 10570 10570 10570 10569 10569 10571 10572 10574 10574 10574 10573 10573 10573 10573 10573 10573 10573 10574 10574 10574 10574 10575 10575 10576 10576 10576 10576 10576 10576 10576 10576
10563 10563 10562 10562 10563 10564 10565 10566 10566 10567 10566 10566 10565 10565 10564 10563 10563 10564 10565 10566 10566 10566 10565 10565 10565 10565 10565 10565 10565 10566 10566 10567 10568 10569 10570 10570 10570 10571 10571 10571 10571 10571
10557 10557 10557 10558 10559 10560 10560 10560 10561 10562 10562 10561 10561 10561 10560 10559 10558 10557 10556 10557 10557 10558 10558 10557 10557 10557 10557 10557 10557 10557 10558 10559 10560 10561 10562 10563 10564 10564 10565 10565 10565 10565
10551 10552 10553 10553 10553 10554 10554 10554 10555 10556 10558 10557 10557 10556 10556 10555 10554 10553 10551 10551 10550 10550 10551 10550 10550 10550 10550 10549 10550 10550 10550 10551 10552 10553 10554 10555 10556 10557 10558 10558 10558 10558
10546 10547 10548 10548 10547 10547 10547 10548 10548 10550 10552 10553 10552 10551 10550 10549 10549 10549 10548 10547 10547 10546 10545 10545 10544 10544 10543 10543 10543 10543 10544 10544 10545 10546 10547 10548 10549 10550 10551 10551 10551 10551
10541 10542 10543 10543 10542 10543 10542 10542 10543 10544 10545 10546 10546 10546 10545 10543 10542 10542 10542 10542 10542 10542 10541 10541 10540 10539 10538 10537 10537 10537 10538 10538 10539 10539 10540 10541 10542 10543 10543 10544 10544 10544
10535 10536 10538 10538 10538 10538 10537 10537 10538 10538 10539 10539 10539 10540 10539 10538 10537 10536 10535 10535 10535 10535 10535 10535 10534 10533 10532 10532 10531 10531 10531 10532 10533 10533 10533 10534 10535 10536 10536 10536 10536 10536
10529 10530 10531 10532 10532 10531 10531 10531 10532 10532 10532 10532 10532 10533 10533 10532 10531 10530 10529 10528 10527 10528 10528 10528 10528 10527 10526 10525 10525 10525 10524 10525 10526 10526 10526 10527 10528 10529 10529 10529 10529 10528
10522 10523 10524 10525 10524 10524 10523 10523 10524 10525 10525 10525 10525 10525 10525 10525 10525 10524 10523 10521 10520 10520 10521 10521 10521 10520 10519 10518 10518 10518 10518 10518 10518 10519 10520 10520 10521 10522 10523 10524 10524 10522
10515 10515 10516 10517 10517 10516 10516 10516 10517 10517 10516 10517 10518 10518 10518 10517 10517 10516 10516 10515 10515 10514 10514 10514 10513 10512 10511 10509 10509 10510 10510 10510 10511 10511 10513 10512 10513 10515 10516 10517 10519 10517
10508 10508 10508 10509 10510 10509 10509 10509 10509 10509 10508 10508 10509 10510 10510 10509 10509 10509 10508 10509 10509 10509 10508 10507 10506 10505 10503 10501 10501 10501 10501 10502 10503 10505 10505 10504 10504 10508 10509 10511 10513 10512
10501 10500 10500 10501 10501 10501 10500 10500 10501 10501 10500 10500 10500 10500 10501 10501 10501 10501 10501 10501 10501 10502 10502 10501 10499 10497 10494 10494 10495 10494 10492 10493 10494 10496 10498 10498 10497 10498 10500 10502 10505 10505
10493 10493 10492 10492 10492 10491 10490 10490 10490 10490 10491 10491 10491 10491 10492 10492 10492 10492 10492 10493 10493 10494 10494 10493 10492 10490 10488 10488 10489 10488 10485 10485 10484 10485 10488 10490 10490 10490 10490 10491 10493 10494
10484 10484 10483 10483 10482 10481 10480 10479 10478 10479 10480 10481 10481 10482 10483 10483 10482 10482 10483 10484 10484 10485 10486 10485 10484 10483 10481 10481 10482 10482 10480 10479 10477 10477 10478 10479 10480 10481 10482 10482 10481 10482
10474 10474 10473 10472 10471 10470 10469 10468 10468 10468 10469 10470 10470 10471 10473 10473 10473 10472 10473 10473 10474 10477 10478 10477 10477 10476 10474 10474 10474 10474 10473 10473 10472 10472 10472 10471 10471 10472 10473 10473 10473 10473
10461 10461 10461 10461 10460 10459 10458 10458 10458 10458 10458 10459 10460 10461 10462 10463 10464 10464 10463 10464 10465 10467 10468 10468 10469 10468 10467 10466 10466 10464 10464 10465 10466 10466 10466 10466 10466 10465 10465 10465 10465 10465
10449 10449 10449 10449 10449 10449 10448 10448 10448 10448 10448 10448 10450 10451 10452 10453 10454 10454 10454 10455 10456 10458 10459 10460 10460 10459 10458 10457 10456 10455 10456 10456 10458 10460 10460 10461 10460 10459 10459 10458 10458 10458
10438 10438 10438 10438 10438 10438 10438 10438 10438 10438 10438 10438 10439 10440 10441 10442 10444 10444 10445 10446 10447 10448 10450 10451 10451 10449 10448 10447 10446 10447 10449 10449 10449 10451 10453 10454 10454 10453 10452 10451 10451 10451
10428 10428 10428 10428 10428 10428 10428 10428 10428 10428 10428 10428 10429 10429 10430 10431 10433 10434 10435 10436 10437 10439 10441 10443 10442 10439 10436 10436 10437 10439 10441 10441 10441 10442 10444 10445 10445 10445 10445 10444 10443 10443
10419 10419 10419 10419 10419 10418 10418 10418 10418 10419 10419 10419 10419 10419 10420 10421 10423 10424 10425 10425 10427 10429 10431 10433 10432 10428 10424 10424 10428 10432 10433 10433 10433 10434 10436 10436 10435 10435 10435 10435 10435 10435
10409 10409 10409 10410 10410 10410 10409 10409 10409 10409 10409 10410 10410 10411 10412 10412 10412 10413 10414 10415 10417 10419 10421 10422 10422 10419 10415 10413 10416 10421 10423 10424 10426 10426 10427 10427 10426 10426 10426 10425 10426 10426